Time,TemperatureF,DewpointF,PressureIn,WindDirection,WindDirectionDegrees,WindSpeedMPH,WindSpeedGustMPH,Humidity,HourlyPrecipIn,Conditions,Clouds,dailyrainin,SoftwareType,DateUTC
2013-01-06 00:02:00,43.4,40.1,30.15,SSE,158,3.1,4.0,88,0.00,,,0.00,WUHU216HW,2013-01-06 08:02:00,
2013-01-06 00:07:00,43.4,40.1,30.15,SW,225,0.9,3.4,88,0.00,,,0.00,WUHU216HW,2013-01-06 08:07:00,
2013-01-06 00:12:00,43.4,40.1,30.15,SSW,203,5.1,5.1,88,0.00,,,0.00,WUHU216HW,2013-01-06 08:12:00,
2013-01-06 00:17:00,43.4,40.4,30.14,South,180,1.1,5.1,89,0.00,,,0.00,WUHU216HW,2013-01-06 08:17:00,
2013-01-06 00:22:00,43.4,40.1,30.15,SSW,203,0.9,5.1,88,0.00,,,0.00,WUHU216HW,2013-01-06 08:22:00,
2013-01-06 00:27:00,43.4,40.1,30.15,SSW,203,1.8,2.9,88,0.00,,,0.00,WUHU216HW,2013-01-06 08:27:00,
2013-01-06 00:32:00,43.4,40.1,30.15,SW,225,2.7,2.9,88,0.00,,,0.00,WUHU216HW,2013-01-06 08:32:00,
2013-01-06 00:37:00,43.4,40.1,30.14,South,180,1.8,4.0,88,0.00,,,0.00,WUHU216HW,2013-01-06 08:37:00,
2013-01-06 00:42:00,43.4,40.1,30.14,South,180,1.8,4.0,88,0.00,,,0.00,WUHU216HW,2013-01-06 08:42:00,
2013-01-06 00:47:00,43.4,40.1,30.14,SSE,158,1.8,2.5,88,0.00,,,0.00,WUHU216HW,2013-01-06 08:47:00,
2013-01-06 00:52:00,43.4,40.1,30.14,South,180,1.8,1.8,88,0.00,,,0.00,WUHU216HW,2013-01-06 08:52:00,
2013-01-06 00:57:00,43.6,40.2,30.14,South,180,1.8,3.4,88,0.00,,,0.00,WUHU216HW,2013-01-06 08:57:00,
2013-01-06 01:02:00,43.4,40.1,30.14,South,180,1.1,3.6,88,0.00,,,0.00,WUHU216HW,2013-01-06 09:02:00,
2013-01-06 01:07:00,43.4,40.1,30.15,SW,225,1.8,3.6,88,0.00,,,0.00,WUHU216HW,2013-01-06 09:07:00,
2013-01-06 01:12:00,43.4,40.1,30.14,South,180,2.5,3.6,88,0.00,,,0.00,WUHU216HW,2013-01-06 09:12:00,
2013-01-06 01:17:00,43.4,40.1,30.14,SSE,158,3.1,3.6,88,0.00,,,0.00,WUHU216HW,2013-01-06 09:17:00,
2013-01-06 01:22:00,43.4,40.1,30.14,South,180,3.1,3.4,88,0.00,,,0.00,WUHU216HW,2013-01-06 09:22:00,
2013-01-06 01:27:00,43.2,39.9,30.14,SSW,203,4.5,4.5,88,0.00,,,0.00,WUHU216HW,2013-01-06 09:27:00,
2013-01-06 01:32:00,43.2,39.9,30.14,South,180,2.9,4.5,88,0.00,,,0.00,WUHU216HW,2013-01-06 09:32:00,
2013-01-06 01:37:00,43.2,39.9,30.14,SSE,158,2.5,4.5,88,0.00,,,0.00,WUHU216HW,2013-01-06 09:37:00,
2013-01-06 01:42:00,43.2,39.9,30.15,SSE,158,5.1,5.1,88,0.00,,,0.00,WUHU216HW,2013-01-06 09:42:00,
2013-01-06 01:47:00,43.2,39.9,30.15,South,180,2.2,5.1,88,0.00,,,0.00,WUHU216HW,2013-01-06 09:47:00,
2013-01-06 01:52:00,43.2,39.9,30.16,SSW,203,1.6,3.4,88,0.00,,,0.00,WUHU216HW,2013-01-06 09:52:00,
2013-01-06 01:57:00,43.2,39.9,30.16,SSE,158,6.3,6.3,88,0.00,,,0.00,WUHU216HW,2013-01-06 09:57:00,
2013-01-06 02:02:00,43.2,39.9,30.16,SSE,158,1.1,6.3,88,0.00,,,0.00,WUHU216HW,2013-01-06 10:02:00,
2013-01-06 02:07:00,43.2,39.9,30.16,South,180,4.3,4.3,88,0.00,,,0.00,WUHU216HW,2013-01-06 10:07:00,
2013-01-06 02:12:00,43.2,39.6,30.16,SE,135,0.4,4.3,87,0.00,,,0.00,WUHU216HW,2013-01-06 10:12:00,
2013-01-06 02:17:00,43.2,39.9,30.16,South,180,2.5,3.4,88,0.00,,,0.00,WUHU216HW,2013-01-06 10:17:00,
2013-01-06 02:22:00,43.2,39.6,30.16,SSW,203,3.4,3.4,87,0.00,,,0.00,WUHU216HW,2013-01-06 10:22:00,
2013-01-06 02:27:00,43.2,39.9,30.16,SSW,203,1.1,3.4,88,0.00,,,0.00,WUHU216HW,2013-01-06 10:27:00,
2013-01-06 02:32:00,43.0,39.7,30.17,South,180,0.4,4.0,88,0.00,,,0.00,WUHU216HW,2013-01-06 10:32:00,
2013-01-06 02:37:00,43.0,39.7,30.16,SSE,158,1.3,4.0,88,0.00,,,0.00,WUHU216HW,2013-01-06 10:37:00,
2013-01-06 02:42:00,43.0,39.7,30.17,SE,135,1.1,3.6,88,0.00,,,0.00,WUHU216HW,2013-01-06 10:42:00,
2013-01-06 02:47:00,43.0,39.7,30.16,SE,135,0.9,3.6,88,0.00,,,0.00,WUHU216HW,2013-01-06 10:47:00,
2013-01-06 02:52:00,42.8,39.5,30.16,SSE,158,1.6,1.8,88,0.00,,,0.00,WUHU216HW,2013-01-06 10:52:00,
2013-01-06 02:57:00,42.7,39.7,30.16,South,180,0.9,2.2,89,0.00,,,0.00,WUHU216HW,2013-01-06 10:57:00,
2013-01-06 03:02:00,42.3,39.3,30.16,SE,135,1.6,3.4,89,0.00,,,0.00,WUHU216HW,2013-01-06 11:02:00,
2013-01-06 03:07:00,42.1,39.4,30.16,SE,135,1.6,3.4,90,0.00,,,0.00,WUHU216HW,2013-01-06 11:07:00,
2013-01-06 03:12:00,42.1,39.4,30.16,SSE,158,1.8,1.8,90,0.00,,,0.00,WUHU216HW,2013-01-06 11:12:00,
2013-01-06 03:17:00,41.9,39.2,30.16,SSE,158,1.1,2.7,90,0.00,,,0.00,WUHU216HW,2013-01-06 11:17:00,
2013-01-06 03:22:00,41.8,39.1,30.15,SE,135,0.4,2.9,90,0.00,,,0.00,WUHU216HW,2013-01-06 11:22:00,
2013-01-06 03:27:00,41.8,39.1,30.15,SE,135,1.1,2.9,90,0.00,,,0.00,WUHU216HW,2013-01-06 11:27:00,
2013-01-06 03:32:00,41.6,38.9,30.15,South,180,0.4,2.9,90,0.00,,,0.00,WUHU216HW,2013-01-06 11:32:00,
2013-01-06 03:37:00,41.6,38.9,30.15,ESE,113,1.1,2.9,90,0.00,,,0.00,WUHU216HW,2013-01-06 11:37:00,
2013-01-06 03:42:00,41.6,38.9,30.15,South,180,2.9,3.8,90,0.00,,,0.00,WUHU216HW,2013-01-06 11:42:00,
2013-01-06 03:47:00,41.8,39.1,30.15,SSW,203,2.9,4.9,90,0.00,,,0.00,WUHU216HW,2013-01-06 11:47:00,
2013-01-06 03:52:00,41.8,39.1,30.14,South,180,2.5,4.9,90,0.00,,,0.00,WUHU216HW,2013-01-06 11:52:00,
2013-01-06 03:57:00,41.8,39.1,30.14,SSE,158,2.5,4.5,90,0.00,,,0.00,WUHU216HW,2013-01-06 11:57:00,
2013-01-06 04:02:00,41.8,39.1,30.14,SSW,203,2.5,3.8,90,0.00,,,0.00,WUHU216HW,2013-01-06 12:02:00,
2013-01-06 04:07:00,41.8,38.8,30.14,South,180,2.9,3.4,89,0.00,,,0.00,WUHU216HW,2013-01-06 12:07:00,
2013-01-06 04:12:00,41.8,39.1,30.14,South,180,1.8,3.8,90,0.00,,,0.00,WUHU216HW,2013-01-06 12:12:00,
2013-01-06 04:17:00,41.8,38.8,30.14,South,180,1.8,4.0,89,0.00,,,0.00,WUHU216HW,2013-01-06 12:17:00,
2013-01-06 04:22:00,41.8,38.8,30.14,South,180,2.0,4.3,89,0.00,,,0.00,WUHU216HW,2013-01-06 12:22:00,
2013-01-06 04:27:00,41.8,38.8,30.14,South,180,4.0,4.3,89,0.00,,,0.00,WUHU216HW,2013-01-06 12:27:00,
2013-01-06 04:32:00,41.8,38.8,30.14,SSE,158,2.7,4.0,89,0.00,,,0.00,WUHU216HW,2013-01-06 12:32:00,
2013-01-06 04:37:00,41.8,38.8,30.13,SSE,158,4.9,4.9,89,0.00,,,0.00,WUHU216HW,2013-01-06 12:37:00,
2013-01-06 04:42:00,41.8,38.8,30.13,South,180,2.7,4.9,89,0.00,,,0.00,WUHU216HW,2013-01-06 12:42:00,
2013-01-06 04:47:00,41.6,38.6,30.13,South,180,4.5,5.1,89,0.00,,,0.00,WUHU216HW,2013-01-06 12:47:00,
2013-01-06 04:52:00,41.6,38.6,30.13,South,180,4.7,5.1,89,0.00,,,0.00,WUHU216HW,2013-01-06 12:52:00,
2013-01-06 04:57:00,41.6,38.6,30.13,South,180,4.7,4.7,89,0.00,,,0.00,WUHU216HW,2013-01-06 12:57:00,
2013-01-06 05:02:00,41.8,38.8,30.13,SSW,203,5.6,5.6,89,0.00,,,0.00,WUHU216HW,2013-01-06 13:02:00,
2013-01-06 05:07:00,41.6,38.6,30.13,South,180,2.5,6.5,89,0.00,,,0.00,WUHU216HW,2013-01-06 13:07:00,
2013-01-06 05:12:00,41.6,38.6,30.13,SE,135,2.9,6.5,89,0.00,,,0.00,WUHU216HW,2013-01-06 13:12:00,
2013-01-06 05:17:00,41.6,38.6,30.13,WSW,248,1.3,5.4,89,0.00,,,0.00,WUHU216HW,2013-01-06 13:17:00,
2013-01-06 05:22:00,41.6,38.6,30.13,SSE,158,4.7,4.9,89,0.00,,,0.00,WUHU216HW,2013-01-06 13:22:00,
2013-01-06 05:27:00,41.8,38.8,30.13,South,180,2.5,5.4,89,0.00,,,0.00,WUHU216HW,2013-01-06 13:27:00,
2013-01-06 05:32:00,41.8,38.8,30.13,South,180,1.8,5.4,89,0.00,,,0.00,WUHU216HW,2013-01-06 13:32:00,
2013-01-06 05:37:00,41.9,39.0,30.13,SSE,158,1.8,5.6,89,0.00,,,0.00,WUHU216HW,2013-01-06 13:37:00,
2013-01-06 05:42:00,41.9,39.0,30.13,SSW,203,2.5,5.6,89,0.00,,,0.00,WUHU216HW,2013-01-06 13:42:00,
2013-01-06 05:47:00,42.1,39.2,30.13,SSW,203,5.4,6.3,89,0.00,,,0.00,WUHU216HW,2013-01-06 13:47:00,
2013-01-06 05:52:00,42.1,39.2,30.13,South,180,4.0,6.3,89,0.00,,,0.00,WUHU216HW,2013-01-06 13:52:00,
2013-01-06 05:57:00,42.1,39.2,30.13,WSW,248,4.5,6.9,89,0.00,,,0.00,WUHU216HW,2013-01-06 13:57:00,
2013-01-06 06:02:00,42.1,38.8,30.13,SSE,158,3.6,6.9,88,0.00,,,0.00,WUHU216HW,2013-01-06 14:02:00,
2013-01-06 06:07:00,42.1,38.8,30.13,SSW,203,2.0,4.3,88,0.00,,,0.00,WUHU216HW,2013-01-06 14:07:00,
2013-01-06 06:12:00,42.1,38.8,30.13,SE,135,3.8,3.8,88,0.00,,,0.00,WUHU216HW,2013-01-06 14:12:00,
2013-01-06 06:17:00,42.3,39.0,30.13,South,180,3.8,3.8,88,0.00,,,0.00,WUHU216HW,2013-01-06 14:17:00,
2013-01-06 06:22:00,42.3,39.0,30.14,SSE,158,1.8,3.8,88,0.00,,,0.00,WUHU216HW,2013-01-06 14:22:00,
2013-01-06 06:27:00,42.3,39.0,30.14,SSW,203,2.9,3.8,88,0.00,,,0.00,WUHU216HW,2013-01-06 14:27:00,
2013-01-06 06:32:00,42.3,39.0,30.14,South,180,0.4,2.9,88,0.00,,,0.00,WUHU216HW,2013-01-06 14:32:00,
2013-01-06 06:37:00,42.5,38.9,30.14,SSE,158,2.7,2.7,87,0.00,,,0.00,WUHU216HW,2013-01-06 14:37:00,
2013-01-06 06:42:00,42.3,38.7,30.14,SSW,203,3.8,3.8,87,0.00,,,0.00,WUHU216HW,2013-01-06 14:42:00,
2013-01-06 06:47:00,42.5,38.9,30.14,SSW,203,3.4,4.5,87,0.00,,,0.00,WUHU216HW,2013-01-06 14:47:00,
2013-01-06 06:52:00,42.5,38.9,30.14,SW,225,1.3,4.5,87,0.00,,,0.00,WUHU216HW,2013-01-06 14:52:00,
2013-01-06 06:57:00,42.5,38.9,30.13,SSE,158,1.3,8.9,87,0.00,,,0.00,WUHU216HW,2013-01-06 14:57:00,
2013-01-06 07:02:00,42.3,38.7,30.13,South,180,2.5,8.9,87,0.00,,,0.00,WUHU216HW,2013-01-06 15:02:00,
2013-01-06 07:07:00,42.3,38.7,30.13,SSE,158,3.6,5.6,87,0.00,,,0.00,WUHU216HW,2013-01-06 15:07:00,
2013-01-06 07:12:00,42.3,38.7,30.14,South,180,4.0,5.6,87,0.00,,,0.00,WUHU216HW,2013-01-06 15:12:00,
2013-01-06 07:17:00,42.3,38.7,30.14,SW,225,5.4,9.6,87,0.00,,,0.00,WUHU216HW,2013-01-06 15:17:00,
2013-01-06 07:22:00,42.5,38.9,30.13,SSE,158,3.8,9.6,87,0.00,,,0.00,WUHU216HW,2013-01-06 15:22:00,
2013-01-06 07:27:00,42.5,38.9,30.13,SSE,158,2.7,5.1,87,0.00,,,0.00,WUHU216HW,2013-01-06 15:27:00,
2013-01-06 07:32:00,42.3,38.7,30.13,SW,225,2.7,4.9,87,0.00,,,0.00,WUHU216HW,2013-01-06 15:32:00,
2013-01-06 07:37:00,42.3,38.7,30.14,SSW,203,3.4,4.0,87,0.00,,,0.00,WUHU216HW,2013-01-06 15:37:00,
2013-01-06 07:42:00,42.3,38.7,30.14,SSW,203,2.9,4.3,87,0.00,,,0.00,WUHU216HW,2013-01-06 15:42:00,
2013-01-06 07:47:00,42.3,39.0,30.14,SW,225,1.8,4.3,88,0.00,,,0.00,WUHU216HW,2013-01-06 15:47:00,
2013-01-06 07:52:00,42.3,39.0,30.14,South,180,1.8,3.8,88,0.00,,,0.00,WUHU216HW,2013-01-06 15:52:00,
2013-01-06 07:57:00,42.3,39.0,30.15,South,180,2.5,4.0,88,0.00,,,0.00,WUHU216HW,2013-01-06 15:57:00,
2013-01-06 08:02:00,42.3,39.0,30.15,SE,135,4.5,6.5,88,0.00,,,0.00,WUHU216HW,2013-01-06 16:02:00,
2013-01-06 08:07:00,42.3,39.0,30.15,South,180,5.1,6.5,88,0.00,,,0.00,WUHU216HW,2013-01-06 16:07:00,
2013-01-06 08:12:00,42.5,39.2,30.15,South,180,3.4,6.5,88,0.00,,,0.00,WUHU216HW,2013-01-06 16:12:00,
2013-01-06 08:17:00,42.5,39.2,30.15,SSE,158,2.9,5.6,88,0.00,,,0.00,WUHU216HW,2013-01-06 16:17:00,
2013-01-06 08:22:00,42.5,39.2,30.15,South,180,2.0,4.7,88,0.00,,,0.00,WUHU216HW,2013-01-06 16:22:00,
2013-01-06 08:27:00,42.5,39.2,30.16,SW,225,1.1,4.7,88,0.00,,,0.00,WUHU216HW,2013-01-06 16:27:00,
2013-01-06 08:32:00,42.7,39.3,30.16,SSE,158,3.1,3.1,88,0.00,,,0.00,WUHU216HW,2013-01-06 16:32:00,
2013-01-06 08:37:00,42.7,39.3,30.16,South,180,4.3,5.1,88,0.00,,,0.00,WUHU216HW,2013-01-06 16:37:00,
2013-01-06 08:42:00,42.7,39.3,30.16,South,180,4.0,5.1,88,0.00,,,0.00,WUHU216HW,2013-01-06 16:42:00,
2013-01-06 08:47:00,42.8,39.5,30.16,South,180,3.8,4.0,88,0.00,,,0.00,WUHU216HW,2013-01-06 16:47:00,
2013-01-06 08:52:00,42.8,39.5,30.16,WSW,248,2.9,8.5,88,0.00,,,0.00,WUHU216HW,2013-01-06 16:52:00,
2013-01-06 08:57:00,42.8,39.5,30.16,SW,225,0.9,8.5,88,0.00,,,0.00,WUHU216HW,2013-01-06 16:57:00,
2013-01-06 09:02:00,43.0,39.4,30.16,South,180,3.6,5.6,87,0.00,,,0.00,WUHU216HW,2013-01-06 17:02:00,
2013-01-06 09:07:00,43.2,39.9,30.16,SSE,158,3.1,5.6,88,0.00,,,0.00,WUHU216HW,2013-01-06 17:07:00,
2013-01-06 09:12:00,43.6,40.2,30.16,SSE,158,4.7,4.7,88,0.00,,,0.00,WUHU216HW,2013-01-06 17:12:00,
2013-01-06 09:17:00,43.6,40.2,30.16,South,180,3.1,6.3,88,0.00,,,0.00,WUHU216HW,2013-01-06 17:17:00,
2013-01-06 09:22:00,43.7,40.2,30.16,South,180,2.5,6.3,87,0.00,,,0.00,WUHU216HW,2013-01-06 17:22:00,
2013-01-06 09:27:00,43.7,40.2,30.16,South,180,3.8,4.0,87,0.00,,,0.00,WUHU216HW,2013-01-06 17:27:00,
2013-01-06 09:32:00,43.6,40.0,30.17,South,180,1.6,3.8,87,0.00,,,0.00,WUHU216HW,2013-01-06 17:32:00,
2013-01-06 09:37:00,43.9,40.3,30.17,SSE,158,2.9,3.8,87,0.00,,,0.00,WUHU216HW,2013-01-06 17:37:00,
2013-01-06 09:42:00,43.7,40.2,30.17,South,180,0.4,4.0,87,0.00,,,0.00,WUHU216HW,2013-01-06 17:42:00,
2013-01-06 09:47:00,43.7,40.2,30.17,SSE,158,4.0,4.0,87,0.00,,,0.00,WUHU216HW,2013-01-06 17:47:00,
2013-01-06 09:52:00,43.7,40.4,30.17,South,180,4.7,4.7,88,0.00,,,0.00,WUHU216HW,2013-01-06 17:52:00,
2013-01-06 09:57:00,43.9,40.6,30.17,SSE,158,5.4,5.4,88,0.00,,,0.00,WUHU216HW,2013-01-06 17:57:00,
2013-01-06 10:02:00,44.1,40.8,30.17,SSW,203,2.0,5.4,88,0.00,,,0.00,WUHU216HW,2013-01-06 18:02:00,
2013-01-06 10:07:00,44.3,40.7,30.17,South,180,2.7,6.0,87,0.01,,,0.00,WUHU216HW,2013-01-06 18:07:00,
2013-01-06 10:12:00,44.3,40.7,30.17,South,180,3.4,6.3,87,0.01,,,0.00,WUHU216HW,2013-01-06 18:12:00,
2013-01-06 10:17:00,44.5,40.9,30.18,South,180,2.0,6.3,87,0.01,,,0.00,WUHU216HW,2013-01-06 18:17:00,
2013-01-06 10:22:00,44.6,41.1,30.18,South,180,4.5,7.2,87,0.01,,,0.00,WUHU216HW,2013-01-06 18:22:00,
2013-01-06 10:27:00,44.6,41.1,30.18,SSW,203,3.4,7.2,87,0.01,,,0.00,WUHU216HW,2013-01-06 18:27:00,
2013-01-06 10:32:00,44.6,40.7,30.18,South,180,6.9,6.9,86,0.01,,,0.00,WUHU216HW,2013-01-06 18:32:00,
2013-01-06 10:37:00,44.6,40.7,30.18,SSE,158,2.2,6.9,86,0.01,,,0.00,WUHU216HW,2013-01-06 18:37:00,
2013-01-06 10:42:00,44.6,40.7,30.18,WSW,248,2.5,4.9,86,0.01,,,0.00,WUHU216HW,2013-01-06 18:42:00,
2013-01-06 10:47:00,44.6,40.4,30.18,South,180,3.6,4.9,85,0.01,,,0.00,WUHU216HW,2013-01-06 18:47:00,
2013-01-06 10:52:00,44.8,40.6,30.18,South,180,1.1,5.4,85,0.01,,,0.00,WUHU216HW,2013-01-06 18:52:00,
2013-01-06 10:57:00,44.8,40.9,30.17,South,180,4.0,5.4,86,0.01,,,0.00,WUHU216HW,2013-01-06 18:57:00,
2013-01-06 11:02:00,45.0,41.0,30.17,South,180,2.2,4.0,86,0.01,,,0.00,WUHU216HW,2013-01-06 19:02:00,
2013-01-06 11:07:00,45.0,40.8,30.17,SE,135,3.4,3.6,85,0.00,,,0.00,WUHU216HW,2013-01-06 19:07:00,
2013-01-06 11:12:00,45.0,40.8,30.17,South,180,2.2,5.1,85,0.00,,,0.00,WUHU216HW,2013-01-06 19:12:00,
2013-01-06 11:17:00,45.0,40.8,30.17,South,180,1.1,5.1,85,0.00,,,0.00,WUHU216HW,2013-01-06 19:17:00,
2013-01-06 11:22:00,45.0,40.8,30.16,South,180,2.5,3.8,85,0.00,,,0.00,WUHU216HW,2013-01-06 19:22:00,
2013-01-06 11:27:00,45.2,41.2,30.16,SE,135,1.3,3.8,86,0.00,,,0.00,WUHU216HW,2013-01-06 19:27:00,
2013-01-06 11:32:00,45.4,41.4,30.16,West,270,2.9,3.6,86,0.00,,,0.00,WUHU216HW,2013-01-06 19:32:00,
2013-01-06 11:37:00,45.4,41.1,30.16,SSW,203,5.1,5.1,85,0.00,,,0.00,WUHU216HW,2013-01-06 19:37:00,
2013-01-06 11:42:00,45.5,41.3,30.16,South,180,3.6,6.9,85,0.00,,,0.00,WUHU216HW,2013-01-06 19:42:00,
2013-01-06 11:47:00,45.7,41.5,30.15,SSW,203,2.5,4.5,85,0.00,,,0.00,WUHU216HW,2013-01-06 19:47:00,
2013-01-06 11:52:00,45.9,41.7,30.14,South,180,4.0,5.4,85,0.00,,,0.00,WUHU216HW,2013-01-06 19:52:00,
2013-01-06 11:57:00,46.1,41.6,30.14,SSE,158,4.0,7.2,84,0.00,,,0.00,WUHU216HW,2013-01-06 19:57:00,
2013-01-06 12:02:00,46.3,41.4,30.14,South,180,4.7,5.6,83,0.00,,,0.00,WUHU216HW,2013-01-06 20:02:00,
2013-01-06 12:08:00,46.4,41.6,30.14,South,180,4.9,5.6,83,0.00,,,0.00,WUHU216HW,2013-01-06 20:08:00,
2013-01-06 12:11:00,46.4,41.6,30.14,South,180,5.4,5.4,83,0.00,,,0.00,WUHU216HW,2013-01-06 20:11:00,
2013-01-06 12:13:00,46.4,41.3,30.14,South,180,1.6,5.4,82,0.00,,,0.00,WUHU216HW,2013-01-06 20:13:00,
2013-01-06 12:18:00,46.4,41.3,30.14,SSE,158,4.7,5.4,82,0.00,,,0.00,WUHU216HW,2013-01-06 20:18:00,
2013-01-06 12:23:00,46.4,41.6,30.14,South,180,3.6,4.9,83,0.00,,,0.00,WUHU216HW,2013-01-06 20:23:00,
2013-01-06 12:28:00,46.4,41.6,30.13,SSW,203,4.0,5.8,83,0.00,,,0.00,WUHU216HW,2013-01-06 20:28:00,
2013-01-06 12:33:00,46.4,41.3,30.13,SSW,203,4.3,8.5,82,0.00,,,0.00,WUHU216HW,2013-01-06 20:33:00,
2013-01-06 12:38:00,46.4,41.3,30.13,South,180,3.1,8.7,82,0.00,,,0.00,WUHU216HW,2013-01-06 20:38:00,
2013-01-06 12:43:00,46.6,41.5,30.13,SSW,203,6.5,8.7,82,0.00,,,0.00,WUHU216HW,2013-01-06 20:43:00,
2013-01-06 12:48:00,46.4,41.3,30.13,ESE,113,3.8,6.5,82,0.00,,,0.00,WUHU216HW,2013-01-06 20:48:00,
2013-01-06 12:53:00,46.4,41.6,30.13,SW,225,4.0,6.5,83,0.00,,,0.00,WUHU216HW,2013-01-06 20:53:00,
2013-01-06 12:58:00,46.3,41.4,30.13,SSW,203,2.9,6.3,83,0.00,,,0.00,WUHU216HW,2013-01-06 20:58:00,
2013-01-06 13:02:00,46.4,41.6,30.13,SSW,203,7.6,7.6,83,0.00,,,0.00,WUHU216HW,2013-01-06 21:02:00,
2013-01-06 13:07:00,46.3,41.4,30.13,South,180,4.5,7.6,83,0.00,,,0.00,WUHU216HW,2013-01-06 21:07:00,
2013-01-06 13:12:00,46.3,41.8,30.13,SW,225,2.5,4.5,84,0.00,,,0.00,WUHU216HW,2013-01-06 21:12:00,
2013-01-06 13:17:00,46.4,42.0,30.13,WSW,248,6.0,6.0,84,0.00,,,0.00,WUHU216HW,2013-01-06 21:17:00,
2013-01-06 13:22:00,46.3,41.4,30.13,SSW,203,5.4,6.0,83,0.00,,,0.00,WUHU216HW,2013-01-06 21:22:00,
2013-01-06 13:27:00,46.3,41.4,30.13,South,180,4.5,5.4,83,0.00,,,0.00,WUHU216HW,2013-01-06 21:27:00,
2013-01-06 13:32:00,46.4,41.6,30.13,South,180,4.7,4.7,83,0.00,,,0.00,WUHU216HW,2013-01-06 21:32:00,
2013-01-06 13:37:00,46.4,41.6,30.13,SSE,158,2.9,4.7,83,0.00,,,0.00,WUHU216HW,2013-01-06 21:37:00,
2013-01-06 13:42:00,46.4,41.6,30.12,South,180,2.7,4.0,83,0.00,,,0.00,WUHU216HW,2013-01-06 21:42:00,
2013-01-06 13:47:00,46.3,41.4,30.12,South,180,3.6,5.6,83,0.00,,,0.00,WUHU216HW,2013-01-06 21:47:00,
2013-01-06 13:52:00,46.3,41.4,30.12,SSE,158,4.7,6.3,83,0.00,,,0.00,WUHU216HW,2013-01-06 21:52:00,
2013-01-06 13:57:00,46.1,41.6,30.12,SSE,158,2.9,6.3,84,0.00,,,0.00,WUHU216HW,2013-01-06 21:57:00,
2013-01-06 14:02:00,46.1,41.6,30.12,SSW,203,1.6,4.3,84,0.00,,,0.00,WUHU216HW,2013-01-06 22:02:00,
2013-01-06 14:07:00,46.1,41.6,30.12,SSW,203,2.0,4.3,84,0.00,,,0.00,WUHU216HW,2013-01-06 22:07:00,
2013-01-06 14:12:00,46.1,41.6,30.12,SW,225,2.7,2.7,84,0.00,,,0.00,WUHU216HW,2013-01-06 22:12:00,
2013-01-06 14:17:00,46.3,41.8,30.12,South,180,3.8,3.8,84,0.00,,,0.00,WUHU216HW,2013-01-06 22:17:00,
2013-01-06 14:22:00,46.3,41.8,30.12,SW,225,2.7,3.8,84,0.00,,,0.00,WUHU216HW,2013-01-06 22:22:00,
2013-01-06 14:27:00,46.3,41.8,30.12,SSW,203,2.2,3.8,84,0.00,,,0.00,WUHU216HW,2013-01-06 22:27:00,
2013-01-06 14:32:00,46.3,41.8,30.12,South,180,2.0,3.4,84,0.00,,,0.00,WUHU216HW,2013-01-06 22:32:00,
2013-01-06 14:37:00,46.3,41.8,30.12,SSW,203,4.3,4.3,84,0.00,,,0.00,WUHU216HW,2013-01-06 22:37:00,
2013-01-06 14:42:00,46.3,41.4,30.12,South,180,4.0,5.6,83,0.00,,,0.00,WUHU216HW,2013-01-06 22:42:00,
2013-01-06 14:47:00,46.1,41.6,30.12,SE,135,1.6,5.6,84,0.00,,,0.00,WUHU216HW,2013-01-06 22:47:00,
2013-01-06 14:52:00,46.3,41.4,30.11,South,180,1.8,5.8,83,0.00,,,0.00,WUHU216HW,2013-01-06 22:52:00,
2013-01-06 14:57:00,46.3,41.8,30.11,SSW,203,3.1,5.8,84,0.00,,,0.00,WUHU216HW,2013-01-06 22:57:00,
2013-01-06 15:02:00,46.3,41.8,30.11,South,180,1.1,4.0,84,0.00,,,0.00,WUHU216HW,2013-01-06 23:02:00,
2013-01-06 15:07:00,46.3,41.8,30.11,South,180,3.4,3.4,84,0.00,,,0.00,WUHU216HW,2013-01-06 23:07:00,
2013-01-06 15:12:00,46.3,41.4,30.11,SSW,203,2.2,3.4,83,0.00,,,0.00,WUHU216HW,2013-01-06 23:12:00,
2013-01-06 15:17:00,46.3,41.4,30.10,SSW,203,3.1,3.8,83,0.00,,,0.00,WUHU216HW,2013-01-06 23:17:00,
2013-01-06 15:22:00,46.3,41.4,30.10,South,180,3.4,3.8,83,0.00,,,0.00,WUHU216HW,2013-01-06 23:22:00,
2013-01-06 15:27:00,46.3,41.4,30.09,South,180,2.5,3.6,83,0.00,,,0.00,WUHU216HW,2013-01-06 23:27:00,
2013-01-06 15:32:00,46.3,41.4,30.09,SW,225,1.1,4.7,83,0.00,,,0.00,WUHU216HW,2013-01-06 23:32:00,
2013-01-06 15:37:00,46.3,41.8,30.09,South,180,3.6,4.7,84,0.00,,,0.00,WUHU216HW,2013-01-06 23:37:00,
2013-01-06 15:42:00,46.3,41.8,30.09,South,180,3.1,3.8,84,0.00,,,0.00,WUHU216HW,2013-01-06 23:42:00,
2013-01-06 15:47:00,46.3,41.8,30.10,South,180,4.3,4.3,84,0.00,,,0.00,WUHU216HW,2013-01-06 23:47:00,
2013-01-06 15:52:00,46.3,41.4,30.10,South,180,1.6,4.3,83,0.00,,,0.00,WUHU216HW,2013-01-06 23:52:00,
2013-01-06 15:57:00,46.3,41.8,30.10,SSW,203,1.3,4.0,84,0.00,,,0.00,WUHU216HW,2013-01-06 23:57:00,
2013-01-06 16:02:00,46.3,41.8,30.10,SSW,203,1.8,4.0,84,0.00,,,0.00,WUHU216HW,2013-01-07 00:02:00,
2013-01-06 16:07:00,46.1,41.6,30.10,SSW,203,2.2,3.4,84,0.00,,,0.00,WUHU216HW,2013-01-07 00:07:00,
2013-01-06 16:12:00,46.1,41.6,30.10,South,180,2.5,3.4,84,0.00,,,0.00,WUHU216HW,2013-01-07 00:12:00,
2013-01-06 16:17:00,46.1,41.6,30.11,South,180,2.7,2.7,84,0.00,,,0.00,WUHU216HW,2013-01-07 00:17:00,
2013-01-06 16:22:00,46.1,41.6,30.10,WSW,248,2.2,5.1,84,0.00,,,0.00,WUHU216HW,2013-01-07 00:22:00,
2013-01-06 16:27:00,46.1,41.6,30.10,South,180,2.5,5.1,84,0.00,,,0.00,WUHU216HW,2013-01-07 00:27:00,
2013-01-06 16:32:00,46.1,41.2,30.10,South,180,1.8,3.4,83,0.00,,,0.00,WUHU216HW,2013-01-07 00:32:00,
2013-01-06 16:37:00,46.1,41.2,30.09,South,180,2.7,3.6,83,0.00,,,0.00,WUHU216HW,2013-01-07 00:37:00,
2013-01-06 16:42:00,46.1,41.2,30.09,South,180,2.7,4.0,83,0.00,,,0.00,WUHU216HW,2013-01-07 00:42:00,
2013-01-06 16:47:00,46.1,41.2,30.09,SSW,203,2.7,4.7,83,0.00,,,0.00,WUHU216HW,2013-01-07 00:47:00,
2013-01-06 16:52:00,46.1,41.2,30.09,South,180,4.7,4.7,83,0.00,,,0.00,WUHU216HW,2013-01-07 00:52:00,
2013-01-06 16:57:00,46.1,41.2,30.09,South,180,2.5,4.7,83,0.00,,,0.00,WUHU216HW,2013-01-07 00:57:00,
2013-01-06 17:02:00,46.1,41.2,30.08,South,180,3.8,4.7,83,0.00,,,0.00,WUHU216HW,2013-01-07 01:02:00,
2013-01-06 17:07:00,46.1,41.2,30.09,South,180,2.0,5.4,83,0.00,,,0.00,WUHU216HW,2013-01-07 01:07:00,
2013-01-06 17:12:00,46.1,41.2,30.08,South,180,3.6,5.4,83,0.00,,,0.00,WUHU216HW,2013-01-07 01:12:00,
2013-01-06 17:17:00,46.1,41.2,30.08,SSE,158,1.8,4.9,83,0.00,,,0.00,WUHU216HW,2013-01-07 01:17:00,
2013-01-06 17:22:00,46.1,41.2,30.08,South,180,2.7,2.7,83,0.00,,,0.00,WUHU216HW,2013-01-07 01:22:00,
2013-01-06 17:27:00,46.1,41.2,30.08,SSW,203,1.6,2.7,83,0.00,,,0.00,WUHU216HW,2013-01-07 01:27:00,
2013-01-06 17:32:00,46.1,41.0,30.08,SSE,158,2.7,3.1,82,0.00,,,0.00,WUHU216HW,2013-01-07 01:32:00,
2013-01-06 17:37:00,46.1,41.2,30.08,South,180,2.2,3.1,83,0.00,,,0.00,WUHU216HW,2013-01-07 01:37:00,
2013-01-06 17:42:00,46.1,41.2,30.08,SSW,203,2.9,3.1,83,0.00,,,0.00,WUHU216HW,2013-01-07 01:42:00,
2013-01-06 17:47:00,46.1,41.2,30.08,SSW,203,1.1,3.1,83,0.00,,,0.00,WUHU216HW,2013-01-07 01:47:00,
2013-01-06 17:52:00,46.1,41.2,30.07,SSE,158,2.0,3.1,83,0.00,,,0.00,WUHU216HW,2013-01-07 01:52:00,
2013-01-06 17:57:00,46.1,41.2,30.07,SSW,203,1.1,3.1,83,0.00,,,0.00,WUHU216HW,2013-01-07 01:57:00,
2013-01-06 18:02:00,46.1,41.2,30.07,SE,135,2.9,2.9,83,0.00,,,0.00,WUHU216HW,2013-01-07 02:02:00,
2013-01-06 18:07:00,45.9,41.0,30.07,SSE,158,0.9,2.9,83,0.00,,,0.00,WUHU216HW,2013-01-07 02:07:00,
2013-01-06 18:12:00,45.9,41.0,30.07,SSE,158,1.6,4.7,83,0.00,,,0.00,WUHU216HW,2013-01-07 02:12:00,
2013-01-06 18:17:00,46.1,41.2,30.07,South,180,3.8,4.7,83,0.00,,,0.00,WUHU216HW,2013-01-07 02:17:00,
2013-01-06 18:22:00,46.1,41.2,30.07,South,180,2.0,4.3,83,0.00,,,0.00,WUHU216HW,2013-01-07 02:22:00,
2013-01-06 18:27:00,46.1,41.2,30.07,South,180,2.2,4.3,83,0.00,,,0.00,WUHU216HW,2013-01-07 02:27:00,
2013-01-06 18:32:00,45.9,41.0,30.07,SSW,203,2.5,4.0,83,0.00,,,0.00,WUHU216HW,2013-01-07 02:32:00,
2013-01-06 18:37:00,45.9,41.0,30.07,South,180,1.6,4.0,83,0.00,,,0.00,WUHU216HW,2013-01-07 02:37:00,
2013-01-06 18:42:00,45.9,41.0,30.07,WSW,248,4.7,4.7,83,0.00,,,0.00,WUHU216HW,2013-01-07 02:42:00,
2013-01-06 18:47:00,45.7,40.9,30.07,South,180,2.7,4.7,83,0.00,,,0.00,WUHU216HW,2013-01-07 02:47:00,
2013-01-06 18:52:00,45.9,41.0,30.07,SSW,203,1.8,4.0,83,0.00,,,0.00,WUHU216HW,2013-01-07 02:52:00,
2013-01-06 18:57:00,45.9,40.8,30.07,SSW,203,4.0,5.4,82,0.00,,,0.00,WUHU216HW,2013-01-07 02:57:00,
2013-01-06 19:02:00,45.9,40.8,30.07,South,180,0.7,5.4,82,0.00,,,0.00,WUHU216HW,2013-01-07 03:02:00,
2013-01-06 19:07:00,45.9,40.4,30.07,SSW,203,3.4,4.0,81,0.00,,,0.00,WUHU216HW,2013-01-07 03:07:00,
2013-01-06 19:12:00,45.7,40.2,30.07,SSW,203,2.5,4.0,81,0.00,,,0.00,WUHU216HW,2013-01-07 03:12:00,
2013-01-06 19:17:00,45.9,40.4,30.07,SW,225,2.7,4.7,81,0.00,,,0.00,WUHU216HW,2013-01-07 03:17:00,
2013-01-06 19:22:00,45.7,40.2,30.07,SSW,203,2.0,6.3,81,0.00,,,0.00,WUHU216HW,2013-01-07 03:22:00,
2013-01-06 19:27:00,45.9,40.1,30.07,SSW,203,2.0,6.3,80,0.00,,,0.00,WUHU216HW,2013-01-07 03:27:00,
2013-01-06 19:32:00,45.9,40.1,30.06,South,180,4.0,6.0,80,0.00,,,0.00,WUHU216HW,2013-01-07 03:32:00,
2013-01-06 19:37:00,45.7,40.0,30.06,SSW,203,3.4,6.0,80,0.00,,,0.00,WUHU216HW,2013-01-07 03:37:00,
2013-01-06 19:42:00,45.9,40.1,30.06,SSE,158,2.0,4.5,80,0.00,,,0.00,WUHU216HW,2013-01-07 03:42:00,
2013-01-06 19:47:00,45.9,40.1,30.06,South,180,3.4,4.0,80,0.00,,,0.00,WUHU216HW,2013-01-07 03:47:00,
2013-01-06 19:52:00,45.7,40.0,30.06,SSW,203,2.2,3.8,80,0.00,,,0.00,WUHU216HW,2013-01-07 03:52:00,
2013-01-06 19:57:00,45.7,40.0,30.06,SSW,203,1.8,3.8,80,0.00,,,0.00,WUHU216HW,2013-01-07 03:57:00,
2013-01-06 20:02:00,45.7,40.2,30.06,SSE,158,2.0,3.4,81,0.00,,,0.00,WUHU216HW,2013-01-07 04:02:00,
2013-01-06 20:07:00,45.7,40.2,30.06,SE,135,4.0,4.0,81,0.00,,,0.00,WUHU216HW,2013-01-07 04:07:00,
2013-01-06 20:12:00,45.5,40.1,30.06,South,180,2.2,4.3,81,0.00,,,0.00,WUHU216HW,2013-01-07 04:12:00,
2013-01-06 20:17:00,45.5,40.1,30.06,SE,135,2.0,4.3,81,0.00,,,0.00,WUHU216HW,2013-01-07 04:17:00,
2013-01-06 20:22:00,45.4,39.9,30.06,South,180,2.7,3.8,81,0.00,,,0.00,WUHU216HW,2013-01-07 04:22:00,
2013-01-06 20:27:00,45.4,39.9,30.06,SE,135,3.4,3.6,81,0.00,,,0.00,WUHU216HW,2013-01-07 04:27:00,
2013-01-06 20:32:00,45.2,40.1,30.06,SE,135,1.6,3.6,82,0.00,,,0.00,WUHU216HW,2013-01-07 04:32:00,
2013-01-06 20:37:00,45.2,40.3,30.06,SSE,158,1.8,2.5,83,0.00,,,0.00,WUHU216HW,2013-01-07 04:37:00,
2013-01-06 20:42:00,45.0,40.5,30.06,SSE,158,2.7,2.7,84,0.00,,,0.00,WUHU216HW,2013-01-07 04:42:00,
2013-01-06 20:47:00,45.0,40.8,30.05,South,180,3.4,4.7,85,0.00,,,0.00,WUHU216HW,2013-01-07 04:47:00,
2013-01-06 20:52:00,44.8,40.6,30.05,South,180,4.7,4.7,85,0.00,,,0.00,WUHU216HW,2013-01-07 04:52:00,
2013-01-06 20:57:00,44.6,40.4,30.05,SSE,158,1.6,4.7,85,0.00,,,0.00,WUHU216HW,2013-01-07 04:57:00,
2013-01-06 21:00:00,44.6,40.7,30.05,South,180,1.8,4.7,86,0.00,,,0.00,WUHU216HW,2013-01-07 05:00:00,
2013-01-06 21:01:00,44.6,40.7,30.05,SSE,158,2.0,4.7,86,0.01,,,0.00,WUHU216HW,2013-01-07 05:01:00,
2013-01-06 21:02:00,44.6,41.1,30.05,South,180,2.5,2.9,87,0.01,,,0.02,WUHU216HW,2013-01-07 05:02:00,
2013-01-06 21:07:00,44.5,40.9,30.04,SE,135,2.7,3.6,87,0.01,,,0.02,WUHU216HW,2013-01-07 05:07:00,
2013-01-06 21:12:00,44.3,40.7,30.04,SSE,158,2.7,3.6,87,0.01,,,0.02,WUHU216HW,2013-01-07 05:12:00,
2013-01-06 21:17:00,44.3,40.7,30.03,SSE,158,4.0,4.0,87,0.01,,,0.02,WUHU216HW,2013-01-07 05:17:00,
2013-01-06 21:22:00,44.3,41.0,30.03,South,180,4.7,4.7,88,0.01,,,0.02,WUHU216HW,2013-01-07 05:22:00,
2013-01-06 21:27:00,44.1,40.8,30.03,SE,135,1.6,4.7,88,0.01,,,0.02,WUHU216HW,2013-01-07 05:27:00,
2013-01-06 21:32:00,44.1,40.8,30.03,SSE,158,3.6,4.7,88,0.01,,,0.02,WUHU216HW,2013-01-07 05:32:00,
2013-01-06 21:37:00,44.1,40.5,30.03,SE,135,1.3,4.5,87,0.01,,,0.02,WUHU216HW,2013-01-07 05:37:00,
2013-01-06 21:42:00,43.9,40.3,30.03,South,180,3.6,4.7,87,0.01,,,0.02,WUHU216HW,2013-01-07 05:42:00,
2013-01-06 21:47:00,43.9,40.3,30.03,SE,135,1.8,4.7,87,0.01,,,0.02,WUHU216HW,2013-01-07 05:47:00,
2013-01-06 21:52:00,43.9,40.3,30.03,South,180,3.4,4.5,87,0.01,,,0.02,WUHU216HW,2013-01-07 05:52:00,
2013-01-06 21:57:00,43.9,40.3,30.03,SSE,158,1.8,6.5,87,0.01,,,0.02,WUHU216HW,2013-01-07 05:57:00,
2013-01-06 22:02:00,43.9,40.6,30.02,South,180,3.4,6.5,88,0.00,,,0.02,WUHU216HW,2013-01-07 06:02:00,
2013-01-06 22:07:00,43.7,40.4,30.02,SE,135,1.8,3.4,88,0.00,,,0.02,WUHU216HW,2013-01-07 06:07:00,
2013-01-06 22:12:00,43.6,40.2,30.01,SE,135,2.5,2.7,88,0.00,,,0.02,WUHU216HW,2013-01-07 06:12:00,
2013-01-06 22:17:00,43.4,40.1,30.02,SSE,158,3.8,5.1,88,0.00,,,0.02,WUHU216HW,2013-01-07 06:17:00,
2013-01-06 22:22:00,43.2,39.6,30.02,SSE,158,4.3,5.1,87,0.00,,,0.02,WUHU216HW,2013-01-07 06:22:00,
2013-01-06 22:27:00,43.0,39.4,30.02,SSE,158,2.5,4.3,87,0.00,,,0.02,WUHU216HW,2013-01-07 06:27:00,
2013-01-06 22:32:00,42.8,39.3,30.02,South,180,0.4,5.1,87,0.00,,,0.02,WUHU216HW,2013-01-07 06:32:00,
2013-01-06 22:37:00,42.8,39.3,30.02,SSE,158,2.0,5.1,87,0.00,,,0.02,WUHU216HW,2013-01-07 06:37:00,
2013-01-06 22:42:00,42.8,39.5,30.01,SSE,158,1.6,3.4,88,0.00,,,0.02,WUHU216HW,2013-01-07 06:42:00,
2013-01-06 22:47:00,42.8,39.5,30.01,NW,315,0.9,3.4,88,0.00,,,0.02,WUHU216HW,2013-01-07 06:47:00,
2013-01-06 22:52:00,42.7,39.7,30.01,East,90,2.0,2.5,89,0.00,,,0.02,WUHU216HW,2013-01-07 06:52:00,
2013-01-06 22:57:00,42.7,39.7,30.00,East,90,0.4,2.5,89,0.00,,,0.02,WUHU216HW,2013-01-07 06:57:00,
2013-01-06 23:02:00,42.7,39.7,30.00,ESE,113,0.7,2.2,89,0.00,,,0.02,WUHU216HW,2013-01-07 07:02:00,
2013-01-06 23:07:00,42.7,39.7,30.00,SE,135,2.5,2.5,89,0.00,,,0.02,WUHU216HW,2013-01-07 07:07:00,
2013-01-06 23:12:00,42.5,39.5,30.00,SSE,158,0.4,2.5,89,0.00,,,0.02,WUHU216HW,2013-01-07 07:12:00,
2013-01-06 23:17:00,42.5,39.5,29.99,SSE,158,0.4,2.5,89,0.00,,,0.02,WUHU216HW,2013-01-07 07:17:00,
2013-01-06 23:22:00,42.5,39.5,29.99,SSE,158,0.2,1.3,89,0.00,,,0.02,WUHU216HW,2013-01-07 07:22:00,
2013-01-06 23:27:00,42.5,39.5,29.99,SSE,158,1.1,2.7,89,0.00,,,0.02,WUHU216HW,2013-01-07 07:27:00,
2013-01-06 23:32:00,42.5,39.5,29.99,SE,135,0.4,2.7,89,0.00,,,0.02,WUHU216HW,2013-01-07 07:32:00,
2013-01-06 23:37:00,42.7,39.7,29.99,SSE,158,1.1,1.6,89,0.00,,,0.02,WUHU216HW,2013-01-07 07:37:00,
2013-01-06 23:42:00,42.5,39.5,29.99,SSE,158,1.3,1.8,89,0.00,,,0.02,WUHU216HW,2013-01-07 07:42:00,
2013-01-06 23:47:00,42.7,39.7,29.99,South,180,0.2,1.8,89,0.00,,,0.02,WUHU216HW,2013-01-07 07:47:00,
2013-01-06 23:52:00,42.7,39.7,29.99,SSE,158,0.4,1.3,89,0.01,,,0.02,WUHU216HW,2013-01-07 07:52:00,
2013-01-06 23:57:00,42.7,39.7,29.99,SE,135,0.7,0.9,89,0.01,,,0.02,WUHU216HW,2013-01-07 07:57:00,